EW0991 Weather Reports


Display with metric or nautical units.
time (UTC)temp
F
wind
direction
speed
MPH
gust
MPH
rain 1hr
in
rain 24hr
in
rain mn
in
humidity
%
barometer
mb
20260504120124 49 278 0.0 0.0 0.00 0.00 0.00 59 1015.0
20260504081524 43 241 0.0 0.0 0.00 0.00 0.00 65 1015.1
20260504050001 46 287 0.0 0.0 0.00 0.00 0.00 58 1014.9
20260504044600 45 255 0.0 0.0 0.00 0.00 0.00 60 1015.0
20260504043114 46 249 0.0 0.0 0.00 0.00 0.00 59 1014.9
20260504041554 47 249 0.0 0.0 0.00 0.00 0.00 57 1014.9
20260504040051 49 249 0.0 0.0 0.00 0.00 0.00 52 1014.6
20260504034553 50 248 0.0 0.0 0.00 0.00 0.00 48 1014.4
20260504033101 52 273 0.0 0.0 0.00 0.00 0.00 44 1014.3
20260504031555 53 248 0.0 0.0 0.00 0.00 0.00 43 1014.3
20260504024549 53 264 0.0 0.0 0.00 0.00 0.00 42 1014.2
20260504023049 53 236 0.0 0.0 0.00 0.00 0.00 42 1014.3
20260504021550 54 231 0.0 0.0 0.00 0.00 0.00 42 1014.2
20260504020053 54 261 0.0 0.0 0.00 0.00 0.00 42 1014.2
20260504014547 54 268 0.0 0.0 0.00 0.00 0.00 42 1014.1
20260504013052 54 212 0.0 0.0 0.00 0.00 0.00 42 1014.2
20260504011546 54 266 0.0 0.0 0.00 0.00 0.00 42 1014.1
20260504010054 54 259 0.0 0.0 0.00 0.00 0.00 43 1013.9
20260504004546 54 239 0.0 0.0 0.00 0.00 0.00 43 1013.7
20260504003044 54 265 0.0 0.0 0.00 0.00 0.00 42 1013.4
20260504001545 55 244 0.0 0.0 0.00 0.00 0.00 42 1013.3
20260504000043 55 239 0.0 0.0 0.00 0.00 0.00 40 1013.2
20260503234542 57 269 0.0 0.0 0.00 0.00 0.00 37 1013.0
20260503233041 58 250 0.0 0.0 0.00 0.00 0.00 35 1012.9
20260503231541 59 257 0.0 0.0 0.00 0.00 0.00 33 1012.9
20260503230056 59 278 0.0 0.0 0.00 0.00 0.00 33 1012.7
20260503224539 59 278 0.0 0.0 0.00 0.00 0.00 34 1012.8
20260503223049 59 269 0.0 0.0 0.00 0.00 0.00 33 1012.6
20260503221546 59 281 0.0 0.0 0.00 0.00 0.00 33 1012.7
20260503220039 59 302 0.0 0.0 0.00 0.00 0.00 33 1012.7
20260503214550 59 308 0.0 0.0 0.00 0.00 0.00 32 1012.7
20260503213036 59 313 0.0 0.0 0.00 0.00 0.00 31 1012.6
20260503211535 59 255 0.0 0.0 0.00 0.00 0.00 31 1012.6
20260503210035 59 255 0.0 0.0 0.00 0.00 0.00 31 1012.6
20260503204539 59 297 0.0 0.0 0.00 0.00 0.00 31 1012.6
20260503203031 58 302 0.0 0.0 0.00 0.00 0.00 30 1012.7
20260503201530 58 345 0.0 0.0 0.00 0.00 0.00 31 1012.8
20260503200026 57 260 0.0 0.0 0.00 0.00 0.00 33 1013.1
20260503194525 57 278 0.0 0.0 0.00 0.00 0.00 33 1013.3
20260503193025 56 1 0.0 0.0 0.00 0.00 0.00 32 1013.4
20260503191523 57 274 0.0 0.0 0.00 0.00 0.00 33 1013.6
20260503190026 55 235 0.0 0.0 0.00 0.00 0.00 33 1013.7
20260503184520 55 316 0.0 0.0 0.00 0.00 0.00 34 1014.0
20260503183018 55 273 0.0 0.0 0.00 0.00 0.00 35 1014.3
20260503181534 54 340 0.0 0.0 0.00 0.00 0.00 36 1014.2
20260503180024 53 262 0.0 0.0 0.00 0.00 0.00 36 1014.2
20260503174513 54 297 0.0 0.0 0.00 0.00 0.00 37 1014.4
20260503173011 53 348 0.0 0.0 0.00 0.00 0.00 38 1014.3
20260503171520 52 343 0.0 0.0 0.00 0.00 0.00 39 1014.6